SL-8 DEB, 21172

Orbit data source: Space-Track

SL-8 DEB, 21172 is space debris in LEO originally from a launch on Tue, 12 Feb 1991 UTC launched from the Plesetsk Missile And Space Complex (PKMTR). Debris objects in space refer to the collection of defunct objects orbiting the Earth. Examples of debris include non-operational satellites, rocket bodies, and fragments generated from explosions, collisions, or faulty payload assembly.

Loading next visibility...
Identifier
21172, 1991-009AK
Orbit
LEO
Country
Flag of CISCIS
Related business
Manufacturer
Unknown
Mission
Spacecraft
Bus & Motor
Unknown
Mass
Unknown
Launch date (UTC)
1991-02-12 (35 years ago)
Launch vehicle
Unknown
Launch site
Plesetsk Missile And Space Complex (PKMTR)
Object type
Payload
Rocket body
Debris
Shape & HBR
Unknown shape, 0.3 m
Radar Cross Section
Medium (>0.1 m² and <1 m²)

Expand to show TLE details & history
Last TLE update: 2 days ago

TLE from 2 days ago
0 SL-8 DEB
1 21172U 91009AK  26171.40439769 -.00000006  00000-0  76024-4 0  9991
2 21172  74.0356 299.4247 0133664   0.2114  56.1802 12.27725082581640
Epoch: 2026-06-20T09:42Z
TLE epoch observation values (Epoch: 2026-06-20T09:42:19.960Z)
Latitude
54.43445°
Longitude
-91.31647°
Altitude
1,509.573 km
Speed
7.141 km/s
True Right ascension
21h 31m 32s
True Declination
54° 17' 14"
Sunlit
Object was in daylight at epoch
Visualization orbit readout
Latitude
Unknown
Longitude
Unknown
Altitude
Unknown
Speed
Unknown
Apparent Right ascension
Unknown
Apparent Declination
Unknown
Sunlit
N/A
Visualization observer readout
Local Sidereal Time
02:31:29
Azimuth
Unknown
Elevation
Unknown
Doppler factor
Unknown
Orbital elements
Apogee altitude
1,662.994 km
Perigee altitude
1,450.868 km
Semi-major axis
7,935.068 km
Eccentricity
0.01337
Inclination
74.0356°
RAAN
299.4247°
Arg. of periapsis
0.2114°
True anomaly
57.46454°
Mean anomaly
56.1802°
Eccentric anomaly
56.82118°
Mean motion
3.07056 °/min
Orbital period
117.24 mins
BSTAR
0.000076024
Loading maneuver chart data...
Computing Atmospheric mass density...
Loading historical data...
Loading historical data...
Loading historical data...
Loading historical data...
Loading historical data...
Loading historical data...
Loading historical data...

Documentation

Showing up to 5 results
|